Location: Alvediston
(51.0078°N, 2.0364°W)
Time: 08:26:56
(UTC+00:00)

USA 238 - Pass Details

Date: 27 February 2020
Orbit: 1020 x 1192 km, 63.4° (Epoch: 12 March)

Event Time Altitude Azimuth Distance (km) Brightness Sun altitude
Rises 18:04:51 0° 307° (NW) 3,884 7.4 -4.0°
Reaches altitude 10° 18:07:41 10° 315° (NW) 2,953 6.6 -4.4°
Maximum altitude 18:14:15 40° 24° (NNE) 1,603 4.4 -5.4°
Drops below altitude 10° 18:21:05 10° 93° (E) 3,062 5.4 -6.5°
Enters shadow 18:21:55 - 96° (E) 3,335 5.6 -6.6°
